Theta_e
294 294 293 293 293 293 293 294 294 295 295 296 294 294 294 294 295 295 296 296 302 308 310 311 312 313 315 316 316 315 315 318 316 315 314 313 312 312
294 294 293 293 293 293 292 292 292 292 293 293 293 294 294 294 294 294 294 295 296 296 297 299 302 307 310 311 312 313 314 316 317 316 315 315 312 312
294 294 293 293 293 293 292 292 292 292 292 293 292 293 293 294 294 294 295 295 295 295 295 296 296 297 298 302 306 309 311 313 315 316 316 315 314 312
294 294 293 293 293 293 292 292 292 291 292 293 293 294 294 294 294 295 295 294 294 294 294 295 295 295 296 297 302 307 309 311 312 314 316 316 314 313
294 294 294 293 293 293 292 292 292 292 291 292 293 293 293 294 295 295 295 295 295 295 296 294 294 293 293 294 295 296 302 307 310 313 314 314 314 313
293 293 293 293 293 293 293 293 292 292 292 292 292 293 292 293 293 295 296 296 296 295 294 294 294 294 294 293 293 294 295 298 304 309 312 313 313 313
293 293 293 292 292 292 292 292 292 292 292 292 292 292 292 293 293 293 294 295 295 295 295 295 295 295 294 294 294 294 294 295 296 303 309 311 312 312
292 292 292 291 291 291 291 291 291 291 291 291 291 291 291 291 292 292 292 293 294 293 294 297 295 295 294 293 293 293 293 293 295 296 301 309 311 311
291 291 291 291 290 290 290 290 290 290 290 290 290 290 290 289 289 289 289 289 290 291 290 294 294 295 294 294 290 291 292 292 293 295 298 303 308 309
291 290 290 289 289 289 288 289 289 288 288 288 288 289 288 288 288 288 288 288 289 289 288 289 292 293 294 292 291 290 291 293 292 293 298 301 303 307
289 288 288 288 288 288 288 288 287 288 287 287 287 288 288 288 287 287 288 287 288 288 287 287 288 289 291 292 290 289 289 288 289 291 291 294 302 302
288 288 288 288 288 287 287 287 286 287 286 286 286 286 286 286 286 286 286 286 284 283 285 285 284 283 286 291 290 288 288 289 290 289 290 291 298 302
286 286 286 286 285 285 285 285 285 284 284 284 284 284 284 285 285 285 285 284 284 283 283 282 283 282 280 282 288 287 287 287 287 288 288 289 293 298
285 284 284 283 283 283 283 283 283 283 283 283 283 283 283 283 283 283 283 284 283 282 282 281 280 280 281 282 282 285 285 286 285 286 287 289 291 297
283 283 282 282 282 282 282 283 283 283 282 281 281 282 283 283 282 283 283 282 282 282 282 281 279 281 280 279 280 281 282 286 284 284 283 286 289 292
282 282 282 282 282 281 282 281 281 281 282 282 283 283 282 282 282 282 282 281 281 281 280 279 279 278 278 278 278 280 281 280 282 282 283 288 290 292
281 281 281 281 281 281 281 282 282 282 281 281 281 281 281 281 281 280 280 280 279 279 279 278 277 277 277 277 277 278 280 280 281 283 284 287 289 290
280 280 281 281 281 281 281 280 280 280 280 280 280 280 280 280 279 279 279 279 278 278 278 277 276 275 275 277 278 279 280 279 279 282 285 287 288 289
279 279 279 279 279 279 279 279 279 279 279 279 280 280 280 279 279 278 278 278 277 277 277 275 275 274 276 276 277 277 278 281 281 282 281 281 286 288
279 279 279 279 279 279 278 278 278 277 277 277 277 277 277 277 277 277 276 276 276 276 275 274 274 274 275 276 276 276 275 277 278 277 279 279 281 285
276 276 275 275 275 274 274 274 274 274 274 274 274 274 275 275 275 275 275 275 275 275 274 273 273 273 275 275 274 275 275 275 276 276 277 280 282 282
274 274 274 274 274 273 272 272 272 272 272 272 272 272 272 272 273 273 273 273 273 272 272 272 272 272 273 273 273 273 273 274 275 276 277 278 279 282
274 273 273 273 273 272 272 272 272 272 271 271 271 271 271 271 271 271 271 271 271 271 271 271 272 272 272 272 272 272 272 273 274 275 277 279 281 283
Wind_Speed
5 5 6 6 6 6 6 6 5 4 4 4 10 11 13 13 13 15 16 16 16 19 21 22 21 21 21 22 22 24 25 24 23 27 26 27 29 28
4 4 5 5 5 6 7 8 8 7 4 9 10 13 14 15 16 16 16 16 16 18 19 21 23 26 27 27 27 27 25 24 24 24 26 26 27 28
2 2 3 3 4 5 6 7 8 10 12 13 14 15 15 15 14 15 17 17 18 20 20 20 21 24 26 25 25 26 26 26 26 26 25 25 27 28
3 3 3 4 3 3 3 4 4 7 10 12 13 15 17 19 20 19 18 19 21 20 21 20 20 22 24 25 25 26 27 27 27 27 27 25 26 26
6 6 6 6 6 6 6 7 7 8 10 13 15 15 16 17 18 20 22 22 21 23 21 21 18 26 23 24 24 24 26 28 27 27 25 26 23 25
10 9 9 9 8 9 10 11 11 12 13 15 17 19 20 22 23 24 23 24 27 27 24 21 27 25 24 22 23 24 26 25 27 27 26 21 24 25
14 14 13 12 12 12 11 11 12 13 14 16 17 18 20 22 24 27 29 28 29 29 29 33 35 32 29 26 23 22 23 24 24 25 25 24 24 25
18 18 17 16 16 15 15 14 14 15 15 17 18 19 19 21 24 26 30 32 34 31 37 31 36 36 40 29 26 26 27 27 25 24 27 26 23 26
23 22 21 20 20 19 19 18 18 18 19 19 19 19 21 22 24 26 26 28 30 32 36 37 35 36 35 37 41 30 23 23 25 27 25 27 29 25
28 26 25 24 23 23 22 22 22 21 21 22 22 22 22 22 23 25 27 31 31 29 30 40 34 38 37 36 37 32 22 17 25 26 24 25 28 29
31 30 28 27 26 26 27 25 25 24 23 25 26 26 25 24 25 27 27 29 33 34 32 30 32 40 39 38 35 31 30 32 32 30 30 26 24 25
34 33 31 30 28 28 29 28 29 26 26 27 27 28 28 27 27 26 26 27 28 34 19 31 38 35 42 42 40 43 43 42 43 30 29 26 24 23
33 32 30 28 28 28 27 27 26 24 26 27 29 30 31 30 29 28 28 27 28 31 31 29 38 39 33 42 47 43 42 44 44 46 28 26 23 20
32 30 29 26 23 21 21 25 25 25 28 30 31 33 33 32 32 32 32 31 30 32 33 31 35 33 32 39 47 48 43 43 44 44 30 21 21 18
28 29 27 26 25 24 22 21 22 27 30 33 35 36 36 35 35 34 34 34 37 34 29 25 28 27 30 36 44 49 47 46 42 30 42 32 25 23
28 26 26 26 26 28 29 30 30 30 33 36 38 38 35 31 31 31 35 38 36 36 31 30 29 30 33 34 36 45 43 44 46 43 36 31 26 27
25 27 28 28 29 30 31 33 33 31 31 30 29 32 33 33 34 34 34 32 36 39 38 37 36 35 32 34 39 41 43 40 35 35 33 33 30 29
21 25 27 28 29 28 27 27 26 25 25 26 29 30 31 34 34 33 35 36 38 38 40 42 42 40 36 35 30 30 28 35 36 32 29 32 36 33
20 22 24 24 25 24 24 25 27 28 29 30 27 28 29 29 32 36 36 40 43 44 45 43 41 35 31 40 39 29 26 28 33 36 36 37 39 39
25 29 30 31 33 35 37 38 38 37 36 36 37 37 38 39 39 41 40 38 41 45 44 41 37 31 30 37 42 46 34 35 36 40 36 36 34 34
26 28 29 29 31 33 34 35 36 36 35 35 35 37 37 38 41 42 41 37 36 37 41 41 40 30 27 34 46 49 43 36 33 35 36 33 37 36
25 27 28 29 31 33 35 35 37 39 38 38 39 41 42 41 40 39 36 37 37 37 41 42 35 30 33 36 43 44 45 41 36 35 31 31 34 40
26 28 30 31 31 32 32 32 34 35 34 34 35 37 36 36 36 37 37 37 37 38 37 37 35 32 34 34 35 42 43 42 40 40 36 26 27 28
Wind_Direction
60 60 58 51 44 38 35 51 61 37 45 8 351 351 355 355 345 338 331 334 322 309 302 301 306 306 307 307 307 309 309 311 300 282 282 284 289 294
52 51 50 48 40 31 16 12 13 20 6 348 356 355 359 358 357 355 351 346 337 330 324 317 311 306 305 307 310 309 307 303 304 297 281 282 286 292
24 24 24 26 26 23 12 3 355 347 340 346 348 347 351 350 353 354 352 354 356 346 342 337 328 324 321 317 314 310 308 308 303 299 293 278 280 286
319 326 328 332 336 344 342 331 324 323 327 332 342 342 344 344 344 345 350 350 349 344 341 338 342 338 330 324 315 311 310 309 307 305 298 285 273 279
288 294 304 309 312 315 316 313 316 322 324 326 331 335 338 334 334 336 337 338 342 339 342 340 343 341 334 327 321 316 305 303 305 308 309 288 266 270
276 282 286 290 298 304 308 311 315 318 319 323 327 329 332 332 332 327 326 330 332 335 333 336 335 336 335 334 331 324 319 313 305 305 303 304 281 269
271 275 279 283 285 288 292 297 302 305 308 311 314 318 322 325 327 329 327 324 326 325 326 326 329 331 332 336 336 332 321 317 314 303 299 300 289 276
265 266 267 270 273 277 280 282 285 290 294 298 304 309 313 316 318 324 325 325 325 324 319 313 322 322 325 335 332 326 323 321 318 311 302 295 295 285
262 265 268 270 270 271 274 276 279 282 285 287 293 299 304 310 313 316 318 318 317 321 321 313 316 313 316 320 330 332 320 313 312 313 310 303 292 289
262 263 264 264 267 268 268 272 276 280 286 289 293 294 295 299 303 308 312 312 311 314 318 312 316 309 309 316 319 320 324 313 326 315 310 308 306 292
260 260 262 264 266 268 271 273 272 275 277 280 283 286 288 293 300 305 309 309 309 311 315 310 313 309 308 310 313 316 310 304 311 310 309 300 295 297
258 259 262 265 266 267 268 269 271 276 276 277 279 283 286 291 294 296 299 300 302 308 297 305 309 320 316 304 306 310 314 316 315 318 310 303 293 296
256 257 261 264 270 270 268 270 277 279 277 276 279 281 285 289 291 293 293 292 291 290 297 302 300 305 306 304 299 304 312 312 313 314 321 310 292 292
253 255 259 262 263 262 264 274 277 279 277 278 281 284 288 291 296 295 292 291 289 291 294 293 291 297 302 301 298 303 305 306 309 315 322 316 310 291
249 251 254 257 259 259 256 259 268 273 278 281 284 287 290 292 292 290 292 295 296 291 290 290 291 292 291 292 297 299 303 304 310 312 315 313 306 299
241 251 255 255 256 260 262 267 271 275 279 281 282 285 286 284 284 287 290 294 294 295 295 294 295 295 299 293 293 292 296 298 306 308 311 310 306 302
246 252 256 261 264 267 271 275 276 277 276 279 280 280 281 281 283 286 288 291 289 291 294 295 300 301 296 292 290 289 296 301 303 306 309 301 299 295
248 255 261 265 269 272 274 276 277 278 280 282 282 280 281 282 283 288 292 285 283 287 292 297 302 306 300 293 289 297 290 298 296 295 297 295 294 294
254 261 266 270 273 275 273 271 272 274 274 272 269 269 275 274 275 281 277 277 282 285 289 294 299 302 291 292 297 296 299 288 289 288 292 291 285 285
245 251 255 260 265 269 271 274 275 276 274 274 274 275 275 275 277 276 276 274 278 285 289 291 294 297 284 288 295 296 293 291 297 300 302 300 289 283
265 267 270 271 272 273 275 275 276 277 277 277 277 275 274 272 272 272 274 273 276 278 280 282 288 290 281 280 286 289 291 291 291 293 300 300 296 293
273 275 276 276 278 277 277 279 280 279 279 279 278 276 274 271 269 270 271 272 273 274 279 288 290 286 281 282 286 290 295 298 297 295 288 285 289 287
276 277 278 277 277 278 280 281 280 281 282 283 282 279 277 274 274 273 272 271 272 274 278 283 284 283 281 283 286 290 293 297 300 302 297 290 287 280